Lexington Weather

Lexington, Massachusetts, USA

69°F
6/18/2024 1:26am 
  • Lexington Conditions: Clear
  • Temperature: 69.1°F / 20.6°CColder 0.9°F than last hour.
  • Dew Point: 62.2°FDecreased 0.2°Fsince last hour.
  • Relative Humidity: 79%Increased 2.0% since last hour.
  • Wind: Calm, 10-min avg: Calm, gust: None
  • Barometer: 30.09 in Steady
  • Visibility: 10 miles
  • Rain Today: 0.00 in
  •   
Southeast Middlesex County, MA - Heat Advisory - Excessive Heat Watch
 - SEE ALL NEARBY ALERTS -

Regional Weather Roundup
for Boston, MA

        
000
ASUS41 KBOX 132310
RWRBOX

REGIONAL WEATHER ROUNDUP
NATIONAL WEATHER SERVICE BOSTON/NORTON MA
700 PM EDT THU JUN 13 2024

NOTE:  "FAIR" INDICATES FEW OR NO CLOUDS BELOW 12,000 FEET WITH NO 
SIGNIFICANT WEATHER AND/OR OBSTRUCTIONS TO VISIBILITY.

MAZALL-140000-
EASTERN MASSACHUSETTS
  
CITY           SKY/WX    TMP DP  RH WIND       PRES   REMARKS
BOSTON         PTSUNNY   78  61  55 S14       29.92R                  
BEVERLY        SUNNY     78  62  57 S14G21    29.90F                  
LAWRENCE       SUNNY     82  54  37 SW12      29.92S                  
BEDFORD        SUNNY     81  54  39 SW9       29.90F                  
NORWOOD        SUNNY     80  64  58 S10       29.93S                  
MARSHFIELD     SUNNY     77  57  50 SW12G23   29.94S                  
PLYMOUTH       SUNNY     76  58  53 SW13      29.95S                  
TAUNTON        SUNNY     78  61  55 SW7G17    29.95R                  
NEW BEDFORD    SUNNY     74  62  66 SW12G20   29.97R                  
$$

MAZALL-140000-
CAPE COD AND THE ISLANDS
  
CITY           SKY/WX    TMP DP  RH WIND       PRES   REMARKS
FALMOUTH       SUNNY     72  63  73 SW15G23   29.98S                  
HYANNIS        SUNNY     69  63  81 SW16G22   29.98R                  
CHATHAM        SUNNY     68  63  84 SW12G24   30.00S                  
PROVINCETOWN   SUNNY     70  64  81 SW14G22   29.97R                  
NANTUCKET      SUNNY     64  62  93 SW10      30.02S                  
MARTHAS VNYRD  SUNNY     68  64  87 SW9       29.99S                  
$$
 
MAZALL-140000-
CENTRAL AND WESTERN MASSACHUSETTS
  
CITY           SKY/WX    TMP DP  RH WIND       PRES   REMARKS
WORCESTER      SUNNY     78  57  48 S13G21    29.97R                  
FITCHBURG      SUNNY     82  54  37 S7        29.92S                  
ORANGE         SUNNY     82  56  40 S9        29.93R                  
SPRINGFIELD    MOSUNNY   83  59  44 SW16G23   29.89R                  
WESTFIELD      MOSUNNY   81  61  50 S14       29.91R                  
NORTH ADAMS    SUNNY     86  57  37 S7        29.91S                  
PITTSFIELD     SUNNY     79  54  41 S8        29.94R                  
$$
 
RIZALL-140000-
RHODE ISLAND
  
CITY           SKY/WX    TMP DP  RH WIND       PRES   REMARKS
PROVIDENCE     MOSUNNY   76  58  53 SW14G25   29.96R                  
NEWPORT        SUNNY     69  62  78 SW8G18    29.98S                  
BLOCK ISLAND   SUNNY     68  61  78 SW15      30.00S                  
SMITHFIELD     SUNNY     76  61  59 VRB7G16   29.97R                  
WESTERLY       SUNNY     73  62  68 SW6       29.99R                  
$$
 
CTZALL-140000-
CONNECTICUT
  
CITY           SKY/WX    TMP DP  RH WIND       PRES   REMARKS
BRADLEY INTL   MOSUNNY   84  58  40 S14G23    29.93R                  
HARTFORD       SUNNY     81  57  43 S13G24    29.94R                  
PLAINVILLE     CLEAR     80  58  46 S12       29.94R                  
BRIDGEPORT     SUNNY     75  60  59 SW8       29.96S                  
DANBURY        SUNNY     79  55  43 S15G24    29.97R                  
GROTON         SUNNY     71  62  73 SW7       29.97S                  
NEW HAVEN      SUNNY     77  63  61 CALM      29.97R                  
CHESTER        SUNNY     77  59  53 VRB7G13   29.98S                  
MERIDEN        LGT RAIN  79  53  40 S10G18    29.95R                  
WILLIMANTIC    SUNNY     78  56  46 SW9       29.96R                  
OXFORD         SUNNY     76  58  53 S8G18     29.99R                  
$$

MEZ002-015-021-024-NHZ003-005-008-011-012-014-VTZ005-008-140000-
NORTHERN NEW ENGLAND
  
CITY           SKY/WX    TMP DP  RH WIND       PRES   REMARKS
PORTLAND ME    MOSUNNY   70  59  68 S8G17     29.91S                  
BANGOR ME      PTSUNNY   71  58  63 S10       29.89F                  
CONCORD NH     SUNNY     81  56  42 S12G17    29.89S                  
MANCHESTER NH  MOSUNNY   83  54  36 SW7       29.89R                  
NASHUA NH      SUNNY     83  57  41 CALM      29.92R                  
PORTSMOUTH NH  PTSUNNY   77  59  53 SE7       29.89S                  
JAFFREY NH     SUNNY     81  55  40 SW5       29.95R                  
KEENE NH       SUNNY     82  56  40 SW10      29.90S                  
BURLINGTON VT  PTSUNNY   78  61  55 S8        29.81F                  
MT. WASHINGTON PTSUNNY   52  46  82 SW26G33     N/A                   
$$

NYZ052-076-140000-
EASTERN NEW YORK
  
CITY           SKY/WX    TMP DP  RH WIND       PRES   REMARKS
ALBANY         MOSUNNY   85  57  38 S12       29.86F                  
NEW YORK CITY  MOSUNNY   79  56  45 S12G24    29.94F                  
$$
 
ANZALL-140000-
MARINE OBSERVATIONS
  
STATION/POSITION TIME  TEMP    WIND        PRES    VSBY  WAVE
                       AIR SEA DIR/SP/G                  HT/PER
                 (UTC) (F)     (DEG/KT/KT) (MB)    (MI)  (FT/S)
BOSTON BUOY      2250   71 65  190/ 12/ 14 1013.3F         2/ 3
BUZZARDS BAY     2200   65     210/ 16/ 17 1015.6F
NANTUCKET SOUND  2250   66 67  210/ 16/ 17 1015.0F         1/ 3
MASS BAY-STELLWA 2104   68 64  180/ 12/ 14 1013.3F  1 7/8  2/ 8
ISLE OF SHOALS   2200   67     160/ 17/ 17 1012.1F
S OF BLOCK IS    2256      63                N/A           3/ 8
$$

......................KEY.........................
  SKY/WX - SKY CONDITION/PRESENT WEATHER
  TMP    - TEMPERATURE IN FAHRENHEIT
  DWPT   - DEWPOINT IN FAHRENHEIT
  RH     - RELATIVE HUMIDITY IN PERCENT
  WIND   - DIRECTION AND SPEED IN MPH
  PRES   - MEAN SEA LEVEL PRESSURE IN INCHES OF HG
  WCI    - WIND CHILL INDEX
  VSB    - VISIBILITY IN MILES
  HX     - HEAT INDEX
  TC     - TEMPERATURE IN CELSIUS
  VRB    - VARIABLE WIND DIRECTION
  N/A    - NOT AVAILABLE
  
      

Other recent Regional Weather Roundups

Tue Jun 18, 1:10am EDT

Tue Jun 18, 12:10am EDT

Mon Jun 17, 11:10pm EDT

Mon Jun 17, 10:10pm EDT

Mon Jun 17, 9:10pm EDT

Mon Jun 17, 8:10pm EDT

Mon Jun 17, 7:10pm EDT

Mon Jun 17, 6:10pm EDT

Mon Jun 17, 5:10pm EDT

Mon Jun 17, 4:10pm EDT

Mon Jun 17, 3:10pm EDT

Mon Jun 17, 2:10pm EDT

Mon Jun 17, 1:10pm EDT

Mon Jun 17, 12:10pm EDT

Mon Jun 17, 11:10am EDT

Mon Jun 17, 10:10am EDT

Mon Jun 17, 9:10am EDT

Mon Jun 17, 8:10am EDT

Mon Jun 17, 7:10am EDT

Mon Jun 17, 6:10am EDT

Mon Jun 17, 5:10am EDT

Mon Jun 17, 4:10am EDT

Mon Jun 17, 3:10am EDT

Mon Jun 17, 2:10am EDT

Mon Jun 17, 1:10am EDT

Mon Jun 17, 12:10am EDT

Sun Jun 16, 11:10pm EDT

Sun Jun 16, 10:10pm EDT

Sun Jun 16, 9:10pm EDT

Sun Jun 16, 8:10pm EDT

Sun Jun 16, 7:10pm EDT

Sun Jun 16, 6:10pm EDT

Sun Jun 16, 5:10pm EDT

Sun Jun 16, 4:10pm EDT

Sun Jun 16, 3:10pm EDT

Sun Jun 16, 2:10pm EDT

Sun Jun 16, 1:10pm EDT

Sun Jun 16, 12:10pm EDT

Sun Jun 16, 11:10am EDT

Sun Jun 16, 10:10am EDT

Sun Jun 16, 9:10am EDT

Sun Jun 16, 8:10am EDT

Sun Jun 16, 7:10am EDT

Sun Jun 16, 6:10am EDT

Sun Jun 16, 5:10am EDT

Sun Jun 16, 4:10am EDT

Sun Jun 16, 3:10am EDT

Sun Jun 16, 2:10am EDT

Sun Jun 16, 1:10am EDT

Sun Jun 16, 12:10am EDT

Sat Jun 15, 11:10pm EDT

Sat Jun 15, 10:10pm EDT

Sat Jun 15, 9:10pm EDT

Sat Jun 15, 8:10pm EDT

Sat Jun 15, 7:10pm EDT

Sat Jun 15, 6:10pm EDT

Sat Jun 15, 5:10pm EDT

Sat Jun 15, 4:10pm EDT

Sat Jun 15, 3:10pm EDT

Sat Jun 15, 2:10pm EDT

Sat Jun 15, 1:10pm EDT

Sat Jun 15, 12:10pm EDT

Sat Jun 15, 11:10am EDT

Sat Jun 15, 10:10am EDT

Sat Jun 15, 9:10am EDT

Sat Jun 15, 8:10am EDT

Sat Jun 15, 7:10am EDT

Sat Jun 15, 6:10am EDT

Sat Jun 15, 5:10am EDT

Sat Jun 15, 4:10am EDT

Sat Jun 15, 3:10am EDT

Sat Jun 15, 2:10am EDT

Sat Jun 15, 1:10am EDT

Sat Jun 15, 12:10am EDT

Fri Jun 14, 11:10pm EDT

Fri Jun 14, 10:10pm EDT

Fri Jun 14, 9:10pm EDT

Fri Jun 14, 8:10pm EDT

Fri Jun 14, 7:10pm EDT

Fri Jun 14, 6:10pm EDT

Fri Jun 14, 5:10pm EDT

Fri Jun 14, 4:10pm EDT

Fri Jun 14, 3:10pm EDT

Fri Jun 14, 2:10pm EDT

Fri Jun 14, 1:10pm EDT

Fri Jun 14, 12:10pm EDT

Fri Jun 14, 11:10am EDT

Fri Jun 14, 10:10am EDT

Fri Jun 14, 9:10am EDT

Fri Jun 14, 8:10am EDT

Fri Jun 14, 7:10am EDT

Fri Jun 14, 6:10am EDT

Fri Jun 14, 5:10am EDT

Fri Jun 14, 4:10am EDT

Fri Jun 14, 3:10am EDT

Fri Jun 14, 2:10am EDT

Fri Jun 14, 1:10am EDT

Fri Jun 14, 12:10am EDT

Thu Jun 13, 11:10pm EDT

Thu Jun 13, 10:10pm EDT

Thu Jun 13, 9:10pm EDT

Thu Jun 13, 8:10pm EDT

Thu Jun 13, 6:10pm EDT

Thu Jun 13, 5:10pm EDT

Thu Jun 13, 4:10pm EDT

Thu Jun 13, 3:10pm EDT

Thu Jun 13, 2:10pm EDT

Thu Jun 13, 1:10pm EDT

Thu Jun 13, 12:10pm EDT

Thu Jun 13, 11:10am EDT

Thu Jun 13, 10:10am EDT

Thu Jun 13, 9:10am EDT

Thu Jun 13, 8:10am EDT

Thu Jun 13, 7:10am EDT

Thu Jun 13, 6:10am EDT

Thu Jun 13, 5:10am EDT

Thu Jun 13, 4:10am EDT

Thu Jun 13, 3:10am EDT

Thu Jun 13, 2:10am EDT

Thu Jun 13, 1:10am EDT

Thu Jun 13, 12:10am EDT

Wed Jun 12, 11:10pm EDT

Wed Jun 12, 10:10pm EDT

Wed Jun 12, 9:10pm EDT

Wed Jun 12, 8:10pm EDT

Wed Jun 12, 7:10pm EDT

Wed Jun 12, 6:10pm EDT

Wed Jun 12, 5:10pm EDT

Wed Jun 12, 4:10pm EDT

Wed Jun 12, 3:10pm EDT

Wed Jun 12, 2:10pm EDT

Wed Jun 12, 1:10pm EDT

Wed Jun 12, 12:10pm EDT

Wed Jun 12, 11:10am EDT

Wed Jun 12, 10:10am EDT

Wed Jun 12, 9:10am EDT

Wed Jun 12, 8:10am EDT

Wed Jun 12, 7:10am EDT

Wed Jun 12, 6:10am EDT

Wed Jun 12, 5:10am EDT

Wed Jun 12, 4:10am EDT

Wed Jun 12, 3:10am EDT

Wed Jun 12, 2:10am EDT

Wed Jun 12, 1:10am EDT

Wed Jun 12, 12:10am EDT

Tue Jun 11, 11:10pm EDT

Tue Jun 11, 10:10pm EDT

Tue Jun 11, 9:10pm EDT

Tue Jun 11, 8:10pm EDT

Tue Jun 11, 7:10pm EDT

Tue Jun 11, 6:10pm EDT

Tue Jun 11, 5:10pm EDT

Tue Jun 11, 4:10pm EDT

Tue Jun 11, 3:10pm EDT

Tue Jun 11, 2:10pm EDT

Tue Jun 11, 1:10pm EDT

Tue Jun 11, 12:10pm EDT

Tue Jun 11, 11:10am EDT

Tue Jun 11, 10:10am EDT

Tue Jun 11, 9:10am EDT

Tue Jun 11, 8:10am EDT

Tue Jun 11, 7:10am EDT

Tue Jun 11, 6:10am EDT

Tue Jun 11, 5:10am EDT

Tue Jun 11, 4:10am EDT

Tue Jun 11, 3:10am EDT

Tue Jun 11, 2:10am EDT